Ellensburg, WA
on Wednesday, February 6, 2013

Wednesday
Previous Day Next Day
Daily Summary
 ActualAverage (KYKM)Record (KYKM)
Temperature
Mean Temperature °F / °C 34°F / 1°C  
Max Temperature 45°F / 7°C 44°F / 7°C 60°F / 15°C (1967)
Min Temperature 28°F / -2°C 25°F / -4°C 0°F / -17°C (1985)
Degree Days
Heating Degree Days 28 30  
Month to date heating degree days 185  
Since 1 July heating degree days 3903  
Cooling Degree Days 0 0  
Month to date cooling degree days 0  
Year to date cooling degree days 0  
Moisture
Dew Point 30°F / -1°C   
Average Humidity 74    
Maximum Humidity 85    
Minimum Humidity 58    
Precipitation
Precipitation 0.00 in / 0.00 cm 0.03 in / 0.76 cm 0.58 in / 1.47 cm (1996)
Month to date precipitation 0.17  
Year to date precipitation 1.31  
Snow
Snow 0.00 in / 0.00 cm 0.10 in / 0.25 cm 3.50 in / 8.89 cm (1975)
Month to date snowfall 0.7  
Year to date snowfall 6.0  
Since 1 July snowfall 19.0  
Snow Depth in / cm   
Wind
Wind Speed 4 mph / 6 km/h   
Max Wind Speed 7 mph / 11 km/h   
Max Gust Speed mph / km/h   
Visibility 10 miles / 16 kilometers   
Events Rain   

Key: T is trace of precipitation, MM is missing value
Source: NWS Daily Summary
Time(PST)TemperatureDew PointHumidity Pressure Visibility Wind DirectionWind SpeedGust SpeedPrecipitationEvents Conditions
12:53 AM 33.1°F / 0.6°C 28.0°F / -2.2°C 82% 29.94 in / 1013.9 hPa 10.0 miles / 16.1 kilometers East 3.5 mph / 5.6 km/h - N/A   Overcast
1:53 AM 33.1°F / 0.6°C 28.0°F / -2.2°C 82% 29.96 in / 1014.3 hPa 10.0 miles / 16.1 kilometers ENE 3.5 mph / 5.6 km/h - N/A   Overcast
2:53 AM 33.1°F / 0.6°C 28.0°F / -2.2°C 82% 29.97 in / 1014.9 hPa 10.0 miles / 16.1 kilometers ENE 4.6 mph / 7.4 km/h - 0.00 in / 0.0 cm   Overcast
4:53 AM 30.9°F / -0.6°C 26.1°F / -3.3°C 82% 29.99 in / 1015.4 hPa 10.0 miles / 16.1 kilometers East 3.5 mph / 5.6 km/h - 0.00 in / 0.0 cm   Mostly Cloudy
5:53 AM 28.9°F / -1.7°C 25.0°F / -3.9°C 85% 30.01 in / 1016.3 hPa 5.0 miles / 8.0 kilometers ENE 3.5 mph / 5.6 km/h - N/A   Scattered Clouds
6:53 AM 28.9°F / -1.7°C 24.1°F / -4.4°C 82% 30.01 in / 1016.3 hPa 10.0 miles / 16.1 kilometers East 4.6 mph / 7.4 km/h - N/A   Clear
7:53 AM 30.0°F / -1.1°C 25.0°F / -3.9°C 82% 30.03 in / 1016.8 hPa 10.0 miles / 16.1 kilometers ENE 4.6 mph / 7.4 km/h - N/A   Clear
8:53 AM 35.1°F / 1.7°C 30.0°F / -1.1°C 82% 30.04 in / 1017.1 hPa 10.0 miles / 16.1 kilometers ESE 3.5 mph / 5.6 km/h - N/A   Clear
9:53 AM 39.0°F / 3.9°C 33.1°F / 0.6°C 79% 30.05 in / 1017.5 hPa 10.0 miles / 16.1 kilometers East 3.5 mph / 5.6 km/h - N/A   Clear
10:53 AM 43.0°F / 6.1°C 33.1°F / 0.6°C 68% 30.06 in / 1017.9 hPa 10.0 miles / 16.1 kilometers East 4.6 mph / 7.4 km/h - N/A   Clear
11:53 AM 44.1°F / 6.7°C 32.0°F / 0.0°C 63% 30.06 in / 1017.7 hPa 10.0 miles / 16.1 kilometers SE 3.5 mph / 5.6 km/h - N/A   Clear
1:53 PM 45.0°F / 7.2°C 30.9°F / -0.6°C 58% 30.02 in / 1016.6 hPa 10.0 miles / 16.1 kilometers Calm Calm - N/A   Overcast
2:53 PM 45.0°F / 7.2°C 30.9°F / -0.6°C 58% 30.01 in / 1016.3 hPa 10.0 miles / 16.1 kilometers Calm Calm - N/A   Overcast
3:53 PM 45.0°F / 7.2°C 30.9°F / -0.6°C 58% 30.00 in / 1015.8 hPa 10.0 miles / 16.1 kilometers NE 5.8 mph / 9.3 km/h - N/A   Overcast
4:53 PM 43.0°F / 6.1°C 30.9°F / -0.6°C 62% 29.99 in / 1015.6 hPa 10.0 miles / 16.1 kilometers ENE 5.8 mph / 9.3 km/h - N/A   Overcast
5:53 PM 42.1°F / 5.6°C 32.0°F / 0.0°C 67% 29.99 in / 1015.5 hPa 10.0 miles / 16.1 kilometers South 3.5 mph / 5.6 km/h - N/A   Overcast
6:53 PM 41.0°F / 5.0°C 33.1°F / 0.6°C 73% 29.98 in / 1015.0 hPa 10.0 miles / 16.1 kilometers East 5.8 mph / 9.3 km/h - 0.00 in / 0.0 cm Rain Light Rain
7:53 PM 39.9°F / 4.4°C 32.0°F / 0.0°C 73% 29.96 in / 1014.6 hPa 10.0 miles / 16.1 kilometers ENE 6.9 mph / 11.1 km/h - 0.00 in / 0.0 cm   Mostly Cloudy
8:53 PM 37.9°F / 3.3°C 30.9°F / -0.6°C 76% 29.95 in / 1014.0 hPa 10.0 miles / 16.1 kilometers Calm Calm - N/A   Clear
9:53 PM 37.9°F / 3.3°C 32.0°F / 0.0°C 79% 29.93 in / 1013.3 hPa 10.0 miles / 16.1 kilometers Calm Calm - N/A   Overcast
10:53 PM 37.0°F / 2.8°C 30.9°F / -0.6°C 79% 29.92 in / 1013.1 hPa 10.0 miles / 16.1 kilometers Calm Calm - N/A   Mostly Cloudy
11:53 PM 37.0°F / 2.8°C 30.0°F / -1.1°C 76% 29.91 in / 1012.6 hPa 10.0 miles / 16.1 kilometers NNW 4.6 mph / 7.4 km/h - N/A   Overcast
Moon Phase
Feb. 06 Feb. 10 Feb. 17 Feb. 25 Mar. 04
Sunrise:07:19 AM (PST) Moon Rise:04:16 AM (PST)2/6
Sunset:05:13 PM (PST) Moon Set:01:29 PM (PST)2/6

Copyright © 2014 The Weather Underground, Inc.